User: anonymous   Login
Location: Caoma
(10.5237°N, 67.1352°W)
Time: 17:37:05
(UTC+00:00)
Language:

STARLINK-31508 - Orbit

View from above orbital plane
View from above orbital plane
View from above satellite
View from above satellite

Ground track
Ground track

The orbit data is extracted from the following two-line orbital elements,

1 59503C 24071V   24171.42756944 -.00036403  00000+0 -86862-3 0  1714
2 59503  43.0007 327.7957 0001566 269.8960 297.1429 15.40732529    19
Epoch (UTC): 19 June 2024 10:15:42
Eccentricity: 0.0001566
inclination: 43.0007°
perigee height: 443 km
apogee height: 445 km
right ascension of ascending node: 327.7957°
argument of perigee: 269.8960°
revolutions per day: 15.40732529
mean anomaly at epoch: 297.1429°
orbit number at epoch: 1

The dashed part of the orbit path shows where the satellite is in the earth's shadow,  

DLR